[[{"header":{"parameterUnit":"m.s-1","parameterCategory":1,"la1":30.2991,"la2":30.254,"lo1":-89.0895,"lo2":-89.0444,"dy":0.0017,"dx":0.0017,"nx":28,"ny":28,"refTime":"2025-09-17T09:00:00:Z","depth":0,"parameterNumber":2,"parameterNumberName":"U-component_of_WINDS"},"data":[0,0,0,0,0,0,0,0,0,0,0,0,0,0,0,0,0,0,0,0,0,0,0,0,0,0,0,0,0,0,0,0,0,0,0,0,0,0,0,0,0,0,0,0,0,0,0,0,0,0,0,0,0,0,0,0,0,0,-0.0994,-0.0994,0,-0.0971,-0.0971,-0.0971,-0.0918,-0.0917,-0.0916,-0.0915,-0.0893,-0.0894,-0.0894,0,0,0,0,0,0,0,0,0,0,0,0,0,-0.0994,-0.0995,-0.0994,-0.0994,-0.0994,-0.0971,-0.0971,-0.0971,-0.0918,-0.0917,-0.0916,-0.0914,-0.0893,-0.0894,-0.0894,0,0,0,0,0,0,0,0,0,0,0,0,0,-0.0985,-0.0995,-0.0994,-0.0965,-0.0962,-0.0971,-0.0971,-0.0971,-0.0919,-0.0917,-0.0915,-0.0914,-0.0893,-0.0894,-0.0894,-0.0931,0,0,-0.0896,-0.0897,0,0,0,0,0,0,0,0,-0.0986,-0.0985,-0.0969,-0.0967,-0.0964,-0.0946,-0.0963,-0.0958,-0.0919,-0.0935,-0.0915,-0.0913,-0.0912,-0.0911,-0.0911,-0.093,-0.0929,-0.0896,-0.0897,-0.0897,-0.0897,0,0,0,0,0,0,0,-0.0986,-0.0986,-0.0985,-0.0969,-0.0966,-0.0953,-0.095,-0.0962,-0.0933,-0.0934,-0.093,-0.0928,-0.091,-0.091,-0.091,-0.0929,-0.0896,-0.0897,-0.0897,-0.0898,-0.0978,-0.098,0,0,0,0,0,0,-0.0991,-0.0987,-0.0986,-0.0985,-0.0971,-0.0955,-0.0951,-0.0953,-0.0933,-0.0928,-0.0929,-0.0925,-0.091,-0.0909,-0.0909,-0.0951,-0.0897,-0.0898,-0.0898,-0.0977,-0.0979,-0.0981,0,0,0,0,0,0,-0.0991,-0.0992,-0.0987,-0.0985,-0.0983,-0.0956,-0.0959,-0.0954,-0.0953,-0.0929,-0.0924,-0.0934,-0.0908,-0.0908,-0.0926,-0.095,-0.0898,-0.0899,-0.0975,-0.0977,-0.098,-0.1037,0,0,0,0,0,0,-0.0992,-0.0992,-0.1005,-0.0985,-0.0983,-0.1004,-0.0961,-0.0954,-0.0954,-0.0949,-0.0933,-0.0928,-0.0907,-0.0925,-0.0927,-0.095,-0.0899,-0.0972,-0.0976,-0.0979,-0.1032,-0.1041,-0.1048,0,0,0,0,0,-0.0992,-0.1023,-0.1006,-0.1007,-0.1,-0.1006,-0.1005,-0.0979,-0.0956,-0.097,-0.0955,-0.0929,-0.0947,-0.0928,-0.0929,-0.0952,-0.0971,-0.0975,-0.0979,-0.1029,-0.1039,-0.1048,0,0,0,0,0,0,-0.1047,-0.1019,-0.1001,-0.1026,-0.1019,-0.0997,-0.1013,-0.0991,-0.099,-0.0985,-0.0954,-0.095,-0.0973,-0.0964,-0.0944,-0.0987,-0.0955,-0.0959,-0.0992,-0.1002,-0.1009,-0.1012,-0.09,0,0,0,0,0,-0.1062,-0.1069,-0.1044,-0.1069,-0.1066,-0.1041,-0.1042,-0.1023,-0.1014,-0.1011,-0.0997,-0.099,-0.0994,-0.0997,-0.0999,-0.103,-0.1027,-0.1047,-0.1055,-0.1061,-0.1066,-0.1082,-0.1092,-0.0994,-0.0993,-0.0993,0,0,-0.1093,-0.1079,-0.1085,-0.108,-0.1072,-0.108,-0.1038,-0.1049,-0.1055,-0.1013,-0.1029,-0.1019,-0.1009,-0.1034,-0.1044,-0.1027,-0.1092,-0.1066,-0.1072,-0.1073,-0.1087,-0.1097,-0.1105,-0.0996,-0.0996,-0.0995,0,0,-0.1155,-0.1144,-0.1164,-0.1157,-0.1144,-0.1127,-0.1132,-0.1113,-0.1105,-0.112,-0.1089,-0.1096,-0.1103,-0.1097,-0.1096,-0.1155,-0.1131,-0.1156,-0.1197,-0.1214,-0.1221,-0.1228,-0.125,-0.1258,-0.1161,-0.1161,-0.1161,0,-0.1196,-0.1207,-0.1177,-0.119,-0.1189,-0.115,-0.117,-0.1164,-0.1154,-0.1154,-0.1135,-0.1143,-0.1134,-0.1157,-0.1172,-0.1171,-0.1176,-0.1159,-0.1222,-0.1229,-0.1235,-0.1255,-0.1264,-0.1164,-0.1163,-0.1163,-0.1163,0,-0.1258,-0.1266,-0.1283,-0.1274,-0.1274,-0.1291,-0.1264,-0.1268,-0.1249,-0.1234,-0.1251,-0.1238,-0.1237,-0.1241,-0.1222,-0.1262,-0.1252,-0.1228,-0.1195,-0.1248,-0.1267,-0.1274,-0.1168,-0.1167,-0.1166,-0.1166,0,0,-0.1355,-0.1328,-0.1335,-0.1331,-0.1314,-0.132,-0.1335,-0.1333,-0.1338,-0.1332,-0.1344,-0.1351,-0.1329,-0.1327,-0.1307,-0.1321,-0.137,-0.1295,-0.1295,-0.1311,-0.1414,-0.1433,-0.1442,-0.1353,-0.1355,-0.1356,-0.1415,0,-0.1414,-0.1437,-0.1411,-0.144,-0.1447,-0.141,-0.1423,-0.1414,-0.1401,-0.1405,-0.139,-0.1396,-0.1365,-0.1364,-0.1376,-0.1361,-0.139,-0.1356,-0.1365,-0.1366,-0.1371,-0.1452,-0.1472,-0.1528,-0.1422,-0.1423,-0.1424,0,-0.1486,-0.1483,-0.1512,-0.1494,-0.1496,-0.1508,-0.1505,-0.1509,-0.1499,-0.1488,-0.1486,-0.1461,-0.1475,-0.1442,-0.1461,-0.1438,-0.144,-0.1433,-0.1435,-0.1436,-0.1399,-0.1456,-0.1546,-0.1555,-0.1435,-0.1434,-0.1434,0,-0.1555,-0.1558,-0.1576,-0.1573,-0.1552,-0.1562,-0.1553,-0.1541,-0.1542,-0.1539,-0.154,-0.1539,-0.1538,-0.1538,-0.1515,-0.1492,-0.1537,-0.1501,-0.1529,-0.153,-0.1542,-0.1541,-0.1634,-0.1541,-0.1541,-0.154,-0.154,0,-0.1624,-0.1644,-0.1607,-0.1619,-0.164,-0.1609,-0.1632,-0.162,-0.1609,-0.1618,-0.1586,-0.1595,-0.1562,-0.1568,-0.155,-0.1569,-0.1569,-0.1561,-0.1556,-0.1565,-0.1566,-0.1566,-0.1563,-0.1543,-0.1542,-0.1542,-0.1541,0,-0.1706,-0.1682,-0.17,-0.1678,-0.1673,-0.1689,-0.1671,-0.1681,-0.1664,-0.1676,-0.1677,-0.1652,-0.1657,-0.1633,-0.1634,-0.1621,-0.165,-0.1638,-0.1654,-0.1651,-0.168,-0.1678,-0.1778,-0.1789,-0.1688,-0.1689,-0.1689,0,-0.1753,-0.1767,-0.1747,-0.175,-0.1743,-0.1749,-0.1749,-0.172,-0.1722,-0.1711,-0.1722,-0.1725,-0.1725,-0.1735,-0.1717,-0.1718,-0.1707,-0.1741,-0.1707,-0.1715,-0.1709,-0.1709,-0.171,-0.1749,-0.175,-0.1751,-0.1752,0,-0.1838,-0.1825,-0.1827,-0.1825,-0.1826,-0.1823,-0.1817,-0.1822,-0.179,-0.1794,-0.1799,-0.1799,-0.18,-0.1803,-0.18,-0.1792,-0.1767,-0.1763,-0.1769,-0.1779,-0.1788,-0.1785,-0.1675,-0.1761,-0.176,-0.176,-0.1759,-0.1759,-0.1905,-0.1916,-0.1903,-0.1906,-0.1899,-0.1894,-0.1903,-0.1887,-0.189,-0.1888,-0.187,-0.1879,-0.1868,-0.1861,-0.1855,-0.1862,-0.1846,-0.1855,-0.1858,-0.1861,-0.1867,-0.1786,-0.1861,-0.1861,-0.186,-0.186,-0.186,0,-0.199,-0.1979,-0.1982,-0.1976,-0.1978,-0.1953,-0.1946,-0.195,-0.1957,-0.1949,-0.195,-0.1955,-0.1958,-0.194,-0.194,-0.1949,-0.1938,-0.195,-0.195,-0.1949,-0.188,-0.1875,-0.1959,-0.1959,-0.1959,-0.1959,-0.1959,-0.1959,-0.2034,-0.2052,-0.2038,-0.2052,-0.2041,-0.2049,-0.2047,-0.2043,-0.2036,-0.2044,-0.2045,-0.2033,-0.2021,-0.202,-0.2022,-0.2016,-0.2019,-0.2036,-0.2027,-0.1963,-0.1954,-0.1945,-0.1939,-0.2036,-0.2036,-0.2095,-0.2095,-0.2096]},{"header":{"parameterUnit":"m.s-1","parameterCategory":1,"la1":30.2991,"la2":30.254,"lo1":-89.0895,"lo2":-89.0444,"dy":0.0017,"dx":0.0017,"nx":28,"ny":28,"refTime":"2025-09-17T09:00:00:Z","depth":0,"parameterNumber":3,"parameterNumberName":"V-component_of_WINDS"},"data":[0,0,0,0,0,0,0,0,0,0,0,0,0,0,0,0,0,0,0,0,0,0,0,0,0,0,0,0,0,0,0,0,0,0,0,0,0,0,0,0,0,0,0,0,0,0,0,0,0,0,0,0,0,0,0,0,0,0,1.9786,1.9786,0,1.9834,1.9835,1.9835,1.9818,1.9817,1.9816,1.9815,1.9862,1.9865,1.9867,0,0,0,0,0,0,0,0,0,0,0,0,0,1.9675,1.9677,1.9786,1.9786,1.9787,1.9834,1.9835,1.9835,1.9818,1.9817,1.9816,1.9815,1.9862,1.9864,1.9867,0,0,0,0,0,0,0,0,0,0,0,0,0,1.9723,1.9678,1.9786,1.9784,1.9785,1.9834,1.9835,1.9836,1.9819,1.9817,1.9815,1.9814,1.9861,1.9864,1.9867,1.9921,0,0,1.9878,1.9879,0,0,0,0,0,0,0,0,1.972,1.9727,1.9784,1.9784,1.9785,1.9819,1.9813,1.9864,1.9819,1.9806,1.9815,1.9813,1.9849,1.9853,1.9866,1.9923,1.9925,1.9878,1.988,1.9882,1.9883,0,0,0,0,0,0,0,1.9717,1.9725,1.9805,1.9785,1.9785,1.978,1.9785,1.9823,1.9836,1.9807,1.9806,1.9812,1.9849,1.9863,1.9867,1.9926,1.9878,1.9881,1.9883,1.9884,2.0026,2.0028,0,0,0,0,0,0,1.9714,1.9722,1.9803,1.9806,1.9748,1.9783,1.9789,1.9809,1.9835,1.9838,1.9813,1.9811,1.9858,1.9863,1.9868,1.9931,1.9882,1.9885,1.9887,2.0024,2.0026,2.0028,0,0,0,0,0,0,1.9712,1.9721,1.9801,1.9764,1.9774,1.9787,1.981,1.9811,1.9825,1.984,1.9842,1.9825,1.9857,1.9864,1.9907,1.9932,1.9886,1.9889,2.0022,2.0025,2.0027,2.0056,0,0,0,0,0,0,1.9708,1.9721,1.9742,1.9765,1.9776,1.9841,1.9812,1.9813,1.9831,1.9828,1.9852,1.9854,1.9856,1.9902,1.9911,1.9936,1.9892,2.002,2.0023,2.0026,2.0053,2.006,2.0065,0,0,0,0,0,1.9705,1.9748,1.9743,1.9753,1.9803,1.9842,1.9848,1.9851,1.9833,1.9854,1.9863,1.9853,1.9928,1.9907,1.9916,1.9943,2.0018,2.0022,2.0026,2.0051,2.0058,2.0065,0,0,0,0,0,0,1.9728,1.9751,1.9746,1.9798,1.9818,1.9839,1.9866,1.9859,1.9884,1.988,1.9881,1.9886,1.9931,1.9941,1.9917,1.9994,1.997,1.9976,1.9986,1.9993,1.9999,1.9995,1.9895,0,0,0,0,0,1.9739,1.977,1.9788,1.9833,1.9843,1.9853,1.987,1.987,1.989,1.9898,1.9911,1.9931,1.9958,1.9977,2.0003,2.0055,2.0058,2.0077,2.0083,2.0088,2.0093,2.0119,2.0127,2.0041,2.0041,2.0041,0,0,1.9763,1.9779,1.9799,1.9838,1.9854,1.9884,1.986,1.9894,1.9916,1.9903,1.9945,1.9955,1.9977,2.0024,2.0045,2.0034,2.0117,2.0093,2.0097,2.0099,2.0124,2.0132,2.0139,2.0043,2.0043,2.0043,0,0,1.9821,1.9837,1.9875,1.9891,1.9915,1.992,1.9929,1.9951,1.9957,1.9999,1.999,2.0015,2.0064,2.0079,2.0093,2.0155,2.0146,2.0164,2.0194,2.0219,2.0226,2.0232,2.0252,2.026,2.0169,2.0169,2.0169,0,1.9847,1.9894,1.9895,1.993,1.9946,1.9936,1.9973,1.9989,2.0019,2.0031,2.0017,2.0076,2.0091,2.014,2.0155,2.0168,2.0176,2.0161,2.0225,2.0231,2.0237,2.0256,2.0264,2.017,2.017,2.017,2.017,0,1.9923,1.9955,1.9983,2.0013,2.0033,2.0069,2.0074,2.0094,2.0092,2.0098,2.014,2.0156,2.0185,2.0197,2.0195,2.0246,2.0237,2.0225,2.0201,2.0247,2.0265,2.0272,2.0173,2.0172,2.0172,2.0171,0,0,1.9998,2.0028,2.0038,2.005,2.0075,2.0099,2.0133,2.0162,2.0177,2.0199,2.0226,2.0267,2.0255,2.027,2.027,2.0292,2.0338,2.0277,2.0277,2.0286,2.0392,2.0401,2.0409,2.0332,2.0334,2.0335,2.039,0,2.0057,2.0118,2.012,2.0175,2.0203,2.0193,2.0223,2.024,2.0247,2.0271,2.0278,2.0306,2.0289,2.0298,2.032,2.0328,2.0359,2.0324,2.0356,2.0357,2.035,2.0419,2.0428,2.048,2.0397,2.0398,2.0399,0,2.0134,2.0157,2.0215,2.0234,2.0246,2.0273,2.0297,2.0321,2.034,2.0343,2.036,2.0356,2.0389,2.0364,2.0409,2.0385,2.0398,2.0404,2.0406,2.0408,2.038,2.0421,2.0496,2.0503,2.0411,2.041,2.0409,0,2.0181,2.0227,2.0266,2.0278,2.0301,2.0319,2.033,2.0347,2.0363,2.0385,2.0395,2.042,2.0434,2.0452,2.0454,2.0437,2.0498,2.0474,2.05,2.05,2.0513,2.0512,2.059,2.0524,2.0524,2.0524,2.0524,0,2.0245,2.0281,2.0287,2.0312,2.035,2.0351,2.0389,2.0398,2.0413,2.0438,2.0431,2.0454,2.0456,2.0479,2.0481,2.0516,2.0523,2.0525,2.0525,2.0525,2.0525,2.0533,2.0529,2.0526,2.0525,2.0525,2.0525,0,2.0304,2.031,2.0352,2.0371,2.0376,2.0403,2.0418,2.044,2.0446,2.0477,2.0485,2.0493,2.052,2.0524,2.0556,2.0557,2.0599,2.0596,2.0593,2.0592,2.0617,2.0614,2.0701,2.0712,2.0641,2.0641,2.0642,0,2.0344,2.0371,2.0392,2.0408,2.0419,2.0446,2.0462,2.0463,2.048,2.0503,2.0522,2.0548,2.0569,2.0613,2.0621,2.0644,2.0641,2.067,2.0644,2.0643,2.0639,2.0637,2.0639,2.0674,2.0675,2.0676,2.0676,0,2.0415,2.0416,2.044,2.0465,2.0484,2.0504,2.0522,2.0535,2.0539,2.0558,2.0586,2.0602,2.0634,2.0659,2.0682,2.0692,2.0684,2.0684,2.0691,2.0691,2.0688,2.0688,2.0604,2.0682,2.0682,2.0681,2.0681,2.0681,2.0464,2.0487,2.0504,2.0531,2.0544,2.0561,2.0583,2.0591,2.0614,2.064,2.0639,2.0669,2.0685,2.0715,2.0726,2.0748,2.0739,2.0749,2.0751,2.0754,2.0755,2.0685,2.0753,2.0752,2.0752,2.0752,2.0752,0,2.0533,2.0543,2.0568,2.0593,2.0613,2.0605,2.0624,2.0641,2.0668,2.0684,2.0704,2.0735,2.0759,2.0769,2.0792,2.0808,2.0805,2.0814,2.0812,2.0814,2.0764,2.0754,2.0816,2.0816,2.0816,2.0816,2.0816,2.0816,2.0571,2.0608,2.0611,2.0654,2.0664,2.0693,2.0704,2.0719,2.0732,2.0766,2.0786,2.0792,2.0805,2.0829,2.085,2.0852,2.0861,2.0871,2.0871,2.0824,2.0818,2.0811,2.0803,2.0873,2.0873,2.0919,2.092,2.092]}]]